Home   Weather   Tempe   Past weeks

Flag for USA Past Weather in Tempe, Arizona, USA — Yesterday and Last 2 Weeks

Now
48 °F

Clear.


Feels Like: 45 °F
Forecast: 43 / 59 °F
Wind: 7 mph from Southeast

Location: Phoenix Sky Harbor International Airport

Current Time: Jan 21, 2017 at 11:22:36 pm

Latest Report: Jan 21, 2017 at 10:51 pm


Visibility: 10 mi

Pressure: 30.07 "Hg

Humidity: 66%

Dew Point: 37 °F

Location of TempeLocation

Past Weather in Tempe — Graph

°F

Tempe Temperature Yesterday

Maximum temperature yesterday: 53 °F (at 4:51 pm)
Minimum temperature yesterday: 49 °F (at 3:51 am)
Average temperature yesterday: 51 °F

High & Low Weather Summary for the Past Weeks

 TemperatureHumidityPressure
High74 °F (Jan 8, 3:51 pm)96% (Jan 20, 10:51 pm)30.32 "Hg (Jan 20, 10:51 pm)
Low44 °F (Jan 7, 4:51 am)26% (Jan 8, 3:51 pm)29.44 "Hg (Jan 21, 12:51 am)
Average56 °F62%29.96 "Hg
* Reported Jan 6 9:51 pm — Jan 21 9:51 pm, Tempe, Weather by CustomWeather, © 2017

Note: Actual official high and low records may vary slightly from our data, if they occured in-between our weather recording intervals... More about our weather records

Advertising

Tempe Weather History for the Previous 24 Hours

Scroll right to see more
 ConditionsComfort  
Time TempWeatherWind HumidityBarometerVisibility
9:51 pm
Sat, Jan 21
49 °FClear.6 mph66%30.05 "Hg10 mi
8:51 pm51 °FClear.3 mph59%30.01 "Hg10 mi
7:51 pm52 °FPassing clouds.7 mph57%29.98 "Hg10 mi
6:51 pm54 °FPassing clouds.9 mph49%29.94 "Hg10 mi
5:51 pm56 °FPassing clouds.12 mph42%29.90 "Hg10 mi
4:51 pm58 °FScattered clouds.16 mph38%29.88 "Hg10 mi
3:51 pm59 °FScattered clouds.12 mph36%29.85 "Hg10 mi
2:51 pm59 °FPartly sunny.18 mph42%29.82 "Hg10 mi
1:51 pm56 °FPartly sunny.16 mph53%29.80 "Hg10 mi
12:51 pm58 °FBroken clouds.16 mph46%29.78 "Hg10 mi
11:51 am57 °FScattered clouds.20 mph49%29.76 "Hg10 mi
10:51 am55 °FScattered clouds.24 mph53%29.75 "Hg10 mi
9:51 am53 °FScattered clouds.20 mph61%29.72 "Hg10 mi
8:51 am50 °FScattered clouds.15 mph66%29.67 "Hg10 mi
7:51 am51 °FBroken clouds.15 mph63%29.63 "Hg10 mi
6:51 am51 °FPassing clouds.14 mph63%29.58 "Hg10 mi
5:51 am51 °FPassing clouds.13 mph66%29.54 "Hg10 mi
4:51 am51 °FPassing clouds.22 mph66%29.52 "Hg10 mi
3:51 am53 °FPartly cloudy.20 mph64%29.52 "Hg10 mi
2:51 am53 °FOvercast.15 mph69%29.51 "Hg10 mi
1:51 am54 °FPartly cloudy.23 mph67%29.47 "Hg10 mi
12:51 am55 °FPartly cloudy.18 mph72%29.44 "Hg10 mi
11:51 pm
Fri, Jan 20
52 °FMostly cloudy.12 mph86%29.45 "Hg10 mi
11:12 pm51 °FLight rain. Mostly cloudy.13 mph92%29.47 "Hg7 mi
11:03 pm51 °FHeavy rain. Fog.14 mph96%29.50 "Hg2 mi
Weather by CustomWeather, © 2017

See weather overviewHow to use our weather pages